EW6072 Weather Reports


time (UTC)temp
C
wind
direction
speed
KPH
gust
KPH
rain 1hr
cm
rain 24hr
cm
rain mn
cm
humidity
%
barometer
mb
20260906071521 17 191 0.0 0.0 0.00 0.43 0.00 95 1010.2
20260906070019 17 190 0.0 0.0 0.00 0.43 0.00 95 1010.0
20260906064516 18 190 0.0 0.0 0.00 0.43 0.00 95 1010.4
20260906061511 18 190 0.0 0.0 0.00 0.43 0.00 95 1010.9
20260906060016 18 191 0.0 0.0 0.00 0.43 0.00 95 1011.1
20260906054509 18 191 0.0 0.0 0.00 0.43 0.00 94 1011.1
20260906051507 18 191 0.0 0.0 0.00 0.43 0.00 94 1011.0
20260906050018 18 190 0.0 0.0 0.00 0.43 0.00 94 1010.9
20260906044503 18 190 0.0 0.0 0.00 0.43 0.00 94 1011.1
20260906041601 18 190 0.0 0.0 0.00 0.43 0.43 94 1011.1
20260906040100 18 190 0.0 0.0 0.00 0.43 0.43 94 1011.2
20260906034600 18 191 0.0 0.0 0.00 0.43 0.43 94 1011.3
20260906031604 18 191 0.0 0.0 0.00 0.43 0.43 93 1011.3
20260906030058 18 190 0.0 0.0 0.00 0.43 0.43 93 1011.3
20260906024558 18 191 0.0 0.0 0.00 0.43 0.43 93 1011.2
20260906021658 19 191 0.0 0.0 0.00 0.43 0.43 92 1011.2
20260906014556 19 190 0.0 0.0 0.00 0.43 0.43 92 1011.2
20260906011555 19 190 0.0 0.0 0.00 0.43 0.43 92 1011.0
20260906010055 19 190 0.0 0.0 0.00 0.43 0.43 92 1010.8
20260906004556 19 191 0.0 0.0 0.00 0.43 0.43 91 1010.5
20260906001555 20 190 0.0 0.0 0.00 0.43 0.43 90 1010.0
20260906000054 20 190 0.0 0.0 0.00 0.43 0.43 89 1009.8
20260905234556 21 190 0.0 0.0 0.00 0.43 0.43 86 1010.0
20260905231553 21 191 0.0 0.0 0.00 0.81 0.43 84 1009.9
20260905230055 21 191 0.0 0.0 0.00 0.81 0.43 84 1009.9
20260905224603 22 252 0.0 0.0 0.00 0.81 0.43 84 1009.9
20260905221601 22 252 0.0 1.6 0.00 0.81 0.43 83 1009.8
20260905220104 22 115 0.0 1.6 0.00 0.81 0.43 85 1009.7
20260905214551 22 110 0.0 1.6 0.00 0.81 0.43 86 1009.7
20260905211612 22 185 0.0 1.6 0.00 0.81 0.43 84 1009.6
20260905210055 22 150 0.0 1.6 0.00 0.81 0.43 82 1009.8
20260905204555 22 112 0.0 1.6 0.00 0.81 0.43 83 1009.7
20260905201547 22 156 0.0 1.6 0.00 0.81 0.43 83 1009.9
20260905200054 21 167 0.0 8.0 0.03 0.81 0.43 85 1009.9
20260905194546 20 136 0.0 0.0 0.03 0.81 0.43 90 1010.0
20260905191546 20 136 0.0 1.6 0.03 0.81 0.43 94 1009.8
20260905190045 19 196 0.0 0.0 0.00 0.79 0.41 94 1009.8
20260905184545 18 196 0.0 1.6 0.00 0.79 0.41 94 1009.8
20260905181559 18 265 0.0 0.0 0.00 0.79 0.41 94 1010.4
20260905180038 18 203 0.0 0.0 0.20 0.79 0.41 94 1010.8
20260905174547 18 203 0.0 0.0 0.38 0.79 0.41 94 1011.3
20260905171543 18 202 0.0 0.0 0.38 0.79 0.41 91 1012.3
20260905170037 21 202 0.0 12.9 0.25 0.66 0.28 82 1012.7
20260905164537 24 339 0.0 1.6 0.00 0.41 0.03 83 1012.4
20260905161534 25 165 0.0 1.6 0.00 0.41 0.03 79 1011.7
20260905160059 26 227 0.0 1.6 0.00 0.41 0.03 78 1011.8
20260905154532 25 261 0.0 3.2 0.00 0.41 0.03 81 1012.1
20260905151534 25 252 0.0 3.2 0.00 0.41 0.03 81 1011.5
20260905150027 25 201 0.0 1.6 0.00 0.41 0.03 80 1011.6
20260905144525 25 202 0.0 1.6 0.00 0.41 0.03 80 1011.5
20260905141521 24 186 0.0 1.6 0.00 0.41 0.03 83 1011.8
20260905140018 23 189 0.0 1.6 0.03 0.41 0.03 84 1011.8
20260905134514 23 188 0.0 0.0 0.03 0.41 0.03 87 1011.8
20260905131507 21 188 0.0 0.0 0.03 0.41 0.03 93 1012.1
20260905130002 21 188 0.0 0.0 0.00 0.38 0.00 95 1012.2
20260905124601 20 188 0.0 0.0 0.00 0.38 0.00 96 1012.2
20260905121558 19 188 0.0 0.0 0.00 0.38 0.00 96 1012.2
20260905120115 19 188 0.0 0.0 0.00 0.38 0.00 96 1012.0
20260905114555 19 188 0.0 0.0 0.00 0.38 0.00 96 1011.8
20260905113053 18 188 0.0 0.0 0.00 0.38 0.00 96 1011.6
20260905111608 18 188 0.0 0.0 0.00 0.38 0.00 96 1011.5
20260905104548 18 188 0.0 0.0 0.00 0.38 0.00 96 1011.3
20260905103051 18 188 0.0 0.0 0.00 0.38 0.00 96 1011.3
20260905101548 18 188 0.0 0.0 0.00 0.38 0.00 96 1011.2
20260905094547 18 188 0.0 0.0 0.00 0.38 0.00 96 1011.0
20260905093046 18 188 0.0 0.0 0.00 0.38 0.00 96 1010.8
20260905091614 18 188 0.0 0.0 0.00 0.38 0.00 96 1010.9
20260905084542 19 188 0.0 0.0 0.00 0.38 0.00 96 1011.1
20260905083041 19 188 0.0 0.0 0.00 0.38 0.00 96 1011.2
20260905081540 19 188 0.0 0.0 0.00 0.38 0.00 96 1011.3
20260905074541 19 188 0.0 0.0 0.00 0.38 0.00 96 1011.8
20260905073037 19 188 0.0 0.0 0.00 0.38 0.00 96 1011.7